Regional Weather Roundup
Issued by NWS Newport/Morehead, NC

Current Version | Previous Version | Graphics & Text | Print | Product List | Glossary Off
Versions: 1 2 3 4 5 6 7 8 9 10 11 12 13 14 15 16 17 18 19 20 21 22 23 24 25 26 27 28 29 30 31 32 33 34 35 36 37 38 39 40 41 42 43 44 45 46 47 48 49 50

000
ASUS42 KMHX 080125
RWRMHX
WEATHER ROUNDUP FOR EASTERN NORTH CAROLINA
NATIONAL WEATHER SERVICE NEWPORT/MOREHEAD CITY NC
800 PM EST SUN FEB 07 2016

NOTE: "FAIR" INDICATES FEW OR NO CLOUDS BELOW 12,000 FEET
WITH NO SIGNIFICANT WEATHER AND/OR OBSTRUCTIONS TO VISIBILITY

NCZ015>017-031-032-045>047-102-103-080200-
NORTH COAST

CITY           SKY/WX    TMP DP  RH WIND       PRES   REMARKS
EDENTON        RAIN      39  36  87 N17G29    29.74R
ELIZABETH CITY LGT RAIN  40  37  89 N28G38    29.71F
KITTY HAWK     LGT RAIN  44  42  93 N24G37    29.58F
MANTEO         LGT RAIN  43  43  99 N33G45    29.58F

$$

NCZ045>047-081-094-103-104-080200-
CENTRAL COAST

CITY           SKY/WX    TMP DP  RH WIND       PRES   REMARKS
FRISCO         RAIN      45  43  93 N18G40    29.45F FOG
SWANQUARTER      N/A     39 N/A N/A NW31      29.56F

$$

NCZ095-097-098-100-101-080200-
SOUTHERN COAST

CITY           SKY/WX    TMP DP  RH WIND       PRES   REMARKS
BEAUFORT       HVY RAIN  38  35  89 N33G46    29.56S FOG
CEDAR ISLAND     N/A     41 N/A N/A NW49G67   29.59S
JACKSONVILLE   LGT RAIN  37  32  82 N24G32    29.70S
PINEY ISLAND   NOT AVBL
WILMINGTON     LGT RAIN  38  32  79 N22G29    29.72F


$$

NCZ011>013-027>030-043-044-078>080-089-090>093-098-080200-
COASTAL PLAIN

CITY           SKY/WX    TMP DP  RH WIND       PRES   REMARKS
AHOSKIE        RAIN      37  31  81 N9G16     29.81F
CLINTON        CLOUDY    41  29  62 N7        29.80F
ELIZABETHTOWN  CLOUDY    40  29  65 NW10      29.81R
GOLDSBORO      CLOUDY    41  28  60 N15G23    29.77F
GREENVILLE     LGT RAIN  37  32  81 N10G18    29.81S
HAVELOCK       LGT RAIN  38  33  82 N36G47    29.64S
KENANSVILLE    LGT RAIN  38  31  74 N6G21     29.78S
KINSTON        RAIN      37  32  81 N10G16    29.78S
NEW BERN       RAIN      37  31  78 N22G29    29.70S
RICHLANDS      CLOUDY    37  28  70 NW12G22   29.73F
ROCKY MOUNT    CLOUDY    42  24  49 N17       29.81F
WASHINGTON     LGT RAIN  36  32  85 N15G22    29.74F
WHITEVILLE     CLOUDY    41  28  60 CALM      29.81R

$$

AMZ130-135-150-152-154-156-158-170-250-252-270-ANZ085-086-088-633-658-670-080200-
MARINE OBSERVATIONS

STATION/POSITION TIME  TEMP    WIND        PRES    WAVE   SWELL
                       AIR SEA DIR/SP/G            HT/PER HT/PER
                 (UTC) (F)     (DEG/KT/KT) (MB)    (FT/S) (FT/S)
CHESAPEAKE LIGHT 0100   44      20/ 35/ 40 1006.0
64 E VA BEACH    0050   51 54   30/ 39/ 47 1000.6   15/ 8
DUCK             0100   45 53              1002.0
2 E DUCK         0111      45                N/A    13/ 9   5/11
OREGON INLET     0100   45 45               999.6
13E OREGON INLT  0100      46                N/A    19/10   8/11
HATTERAS CG      0100   45 47               996.5
DIAMOND BUOY     0050   53 71  360/ 43/ 52  992.2   17/11   8/11
CAPE LOOKOUT     NOT AVBL
BEAUFORT LAB     0100   39 46               999.9
30 SE NEW RVR IN 0108   41 61               996.8
30 SE NEW RVR IN 0025      61                N/A    18/ 8  10/12
27 SE WRIGHTSVLE 0108   42 62  360/ 39/ 52  999.4
5 SE WRIGHTSVLE  NOT AVBL
225 S CAPE HAT   0050   57 69  270/ 47/ 58   N/A    23/10
41 SE CHARLESTON 0050   51 66  320/ 31/ 37 1009.1   12/ 7

$$



USA.gov is the U.S. government's official web portal to all federal, state and local government web resources and services.